Location: Arborea
(39.7744°N, 8.5819°E)
Time: 11:49:03
(UTC+00:00)

Cosmos 1000 Rocket - Pass Details

Date: 01 June 2022
Orbit: 952 x 993 km, 82.9° (Epoch: 02 July)

Event Time Altitude Azimuth Distance (km) Brightness Sun altitude
Rises 03:03:50 0° 134° (SE) 3,692 7.6 -9.7°
Reaches altitude 10° 03:07:39 10° 111° (ESE) 2,744 7.3 -9.1°
Maximum altitude 03:10:47 14° 80° (E) 2,434 7.6 -8.6°
Drops below altitude 10° 03:13:56 10° 50° (NE) 2,741 8.6 -8.1°
Sets 03:17:42 0° 27° (NNE) 3,686 8.9 -7.6°
